START_TIME,STEP,MOV.,H8,t_acc.,H43,t_acc.,M25,t_acc.,H9,t_acc.
1979-08-03 00:00:28.320 ,0,0,0.,12.0,0.,12.0,0.,12.0,0.,12.0
1979-08-03 00:00:40.320 ,0,0,0.,12.0,0.,12.0,0.,12.0,0.,12.0
1979-08-03 00:00:52.320 ,1,0,0.,12.0,0.,12.0,0.,12.0,0.,12.0
1979-08-03 00:01:04.320 ,1,0,0.,12.0,0.,12.0,0.,12.0,0.,12.0
1979-08-03 00:01:16.320 ,1,0,0.,12.0,0.,12.0,0.,12.0,0.,12.0
1979-08-03 00:01:28.320 ,1,0,0.,12.0,0.,12.0,0.,12.0,0.,12.0
1979-08-03 00:01:40.320 ,2,0,0.,12.0,0.,12.0,0.,12.0,0.,12.0
1979-08-03 00:01:52.320 ,2,0,0.,12.0,0.,12.0,0.,12.0,0.,12.0
1979-08-03 00:02:04.320 ,2,0,0.,12.0,0.,12.0,0.,12.0,0.,12.0
1979-08-03 00:02:16.320 ,2,0,0.,12.0,0.,12.0,0.,12.0,0.,12.0
1979-08-03 00:02:28.320 ,3,0,0.,12.0,0.,12.0,0.,12.0,0.,12.0
1979-08-03 00:02:40.320 ,3,0,0.,12.0,0.,12.0,0.,12.0,0.,12.0
1979-08-03 00:02:52.320 ,3,0,0.,12.0,0.,12.0,0.,12.0,0.,12.0
1979-08-03 00:03:04.320 ,3,0,0.,12.0,0.,12.0,0.,12.0,0.,12.0
1979-08-03 00:03:16.320 ,4,0,0.,12.0,0.,12.0,0.,12.0,0.,12.0
1979-08-03 00:03:28.320 ,4,0,0.,12.0,0.,12.0,0.,12.0,0.,12.0
1979-08-03 00:03:40.320 ,4,0,0.,12.0,0.,12.0,0.,12.0,0.,12.0
1979-08-03 00:03:52.320 ,4,0,0.,12.0,0.,12.0,0.,12.0,0.,12.0
1979-08-03 00:04:04.320 ,5,0,0.,12.0,0.,12.0,0.,12.0,0.,12.0
1979-08-03 00:04:16.320 ,5,0,0.,12.0,0.,12.0,0.,12.0,0.,12.0
1979-08-03 00:04:28.320 ,5,0,0.,12.0,0.,12.0,0.,12.0,0.,12.0
1979-08-03 00:04:40.320 ,5,0,0.,12.0,0.,12.0,0.,12.0,0.,12.0
1979-08-03 00:04:52.320 ,6,0,0.,12.0,0.,12.0,0.,12.0,0.,12.0
1979-08-03 00:05:04.320 ,6,0,0.,12.0,0.,12.0,0.,12.0,0.,12.0
1979-08-03 00:05:16.320 ,6,0,0.,12.0,0.,12.0,0.,12.0,0.,12.0
1979-08-03 00:05:28.320 ,6,0,0.,12.0,0.,12.0,0.,12.0,0.,12.0
1979-08-03 00:05:40.320 ,7,0,0.,12.0,0.,12.0,0.,12.0,0.,12.0
1979-08-03 00:05:52.320 ,7,0,0.,12.0,0.,12.0,0.,12.0,0.,12.0
1979-08-03 00:06:04.320 ,7,0,0.,12.0,0.,12.0,0.,12.0,0.,12.0
1979-08-03 00:06:16.320 ,7,0,0.,12.0,0.,12.0,0.,12.0,0.,12.0
1979-08-03 00:06:28.320 ,7,0,0.,12.0,0.,12.0,0.,12.0,0.,12.0
1979-08-03 00:06:40.320 ,7,0,0.,12.0,0.,12.0,0.,12.0,0.,12.0
1979-08-03 00:06:52.320 ,7,0,0.,12.0,0.,12.0,0.,12.0,0.,12.0
1979-08-03 00:07:04.320 ,7,0,0.,12.0,0.,12.0,0.,12.0,0.,12.0
1979-08-03 00:07:16.320 ,6,0,0.,12.0,0.,12.0,0.,12.0,0.,12.0
1979-08-03 00:07:28.320 ,6,0,0.,12.0,0.,12.0,0.,12.0,0.,12.0
1979-08-03 00:07:40.320 ,6,0,0.,12.0,0.,12.0,0.,12.0,0.,12.0
1979-08-03 00:07:52.320 ,6,0,0.,12.0,0.,12.0,0.,12.0,0.,12.0
1979-08-03 00:08:04.320 ,5,0,0.,12.0,0.,12.0,0.,12.0,0.,12.0
1979-08-03 00:08:16.320 ,5,0,0.,12.0,0.,12.0,0.,12.0,0.,12.0
1979-08-03 00:08:28.320 ,5,0,0.,12.0,0.,12.0,0.,12.0,0.,12.0
1979-08-03 00:08:40.320 ,5,0,0.,12.0,0.,12.0,0.,12.0,0.,12.0
1979-08-03 00:08:52.320 ,4,0,0.,12.0,0.,12.0,0.,12.0,0.,12.0
1979-08-03 00:09:04.320 ,4,0,0.,12.0,0.,12.0,0.,12.0,0.,12.0
1979-08-03 00:09:16.320 ,4,0,0.,12.0,0.,12.0,0.,12.0,0.,12.0
1979-08-03 00:09:28.320 ,4,0,0.,12.0,0.,12.0,0.,12.0,0.,12.0
1979-08-03 00:09:40.320 ,3,0,0.,12.0,0.,12.0,0.,12.0,0.,12.0
1979-08-03 00:09:52.320 ,3,0,0.,12.0,0.,12.0,0.,12.0,0.,12.0
1979-08-03 00:10:04.320 ,3,0,0.,12.0,0.,12.0,0.,12.0,0.,12.0
1979-08-03 00:10:16.320 ,3,0,0.,12.0,0.,12.0,0.,12.0,0.,12.0
1979-08-03 00:10:28.320 ,2,0,0.,12.0,0.,12.0,0.,12.0,0.,12.0
1979-08-03 00:10:40.320 ,2,0,0.,12.0,0.,12.0,0.,12.0,0.,12.0
1979-08-03 00:10:52.320 ,2,0,0.,12.0,0.,12.0,0.,12.0,0.,12.0
1979-08-03 00:11:04.320 ,2,0,0.,12.0,0.,12.0,0.,12.0,0.,12.0
1979-08-03 00:11:16.320 ,1,0,0.,12.0,0.,12.0,0.,12.0,0.,12.0
1979-08-03 00:11:28.320 ,1,0,0.,12.0,0.,12.0,0.,12.0,0.,12.0
1979-08-03 00:11:40.320 ,1,0,0.,12.0,0.,12.0,0.,12.0,0.,12.0
1979-08-03 00:11:52.320 ,1,0,0.,12.0,0.,12.0,0.,12.0,0.,12.0
1979-08-03 00:12:04.320 ,0,0,0.,12.0,0.,12.0,0.,12.0,0.,12.0
1979-08-03 00:12:16.320 ,0,0,0.,12.0,0.,12.0,0.,12.0,0.,12.0
1979-08-03 00:12:28.320 ,0,0,0.,12.0,0.,12.0,0.,12.0,0.,12.0
1979-08-03 00:12:40.320 ,0,0,0.,12.0,0.,12.0,0.,12.0,0.,12.0
1979-08-03 00:12:52.320 ,0,0,0.,12.0,0.,12.0,0.,12.0,0.,12.0
1979-08-03 00:13:04.320 ,0,0,0.,12.0,0.,12.0,0.,12.0,0.,12.0
1979-08-03 00:13:16.320 ,0,0,0.,12.0,0.,12.0,0.,12.0,0.,12.0
1979-08-03 00:13:28.320 ,0,0,0.,12.0,0.,12.0,0.,12.0,0.,12.0
1979-08-03 00:13:40.320 ,1,0,0.,12.0,0.,12.0,0.,12.0,0.,12.0
1979-08-03 00:13:52.320 ,1,0,0.,12.0,0.,12.0,0.,12.0,0.,12.0
1979-08-03 00:14:04.320 ,1,0,0.,12.0,0.,12.0,0.,12.0,0.,12.0
1979-08-03 00:14:16.320 ,1,0,0.,12.0,0.,12.0,0.,12.0,0.,12.0
1979-08-03 00:14:28.320 ,2,0,0.,12.0,0.,12.0,0.,12.0,0.,12.0
1979-08-03 00:14:40.320 ,2,0,0.,12.0,0.,12.0,0.,12.0,0.,12.0
1979-08-03 00:14:52.320 ,2,0,0.,12.0,0.,12.0,0.,12.0,0.,12.0
1979-08-03 00:15:04.320 ,2,0,0.,12.0,0.,12.0,0.,12.0,0.,12.0
1979-08-03 00:15:16.320 ,3,0,0.,12.0,0.,12.0,0.,12.0,0.,12.0
1979-08-03 00:15:28.320 ,3,0,0.,12.0,0.,12.0,0.,12.0,0.,12.0
1979-08-03 00:15:40.320 ,3,0,0.,12.0,0.,12.0,0.,12.0,0.,12.0
1979-08-03 00:15:52.320 ,3,0,0.,12.0,0.,12.0,0.,12.0,0.,12.0
1979-08-03 00:16:04.320 ,4,0,0.,12.0,0.,12.0,0.,12.0,0.,12.0
1979-08-03 00:16:16.320 ,4,0,0.,12.0,0.,12.0,0.,12.0,0.,12.0
1979-08-03 00:16:28.320 ,4,0,0.,12.0,0.,12.0,0.,12.0,0.,12.0
1979-08-03 00:16:40.320 ,4,0,0.,12.0,0.,12.0,0.,12.0,0.,12.0
1979-08-03 00:16:52.320 ,5,0,0.,12.0,0.,12.0,0.,12.0,0.,12.0
1979-08-03 00:17:04.320 ,5,0,0.,12.0,0.,12.0,0.,12.0,0.,12.0
1979-08-03 00:17:16.320 ,5,0,0.,12.0,0.,12.0,0.,12.0,0.,12.0
1979-08-03 00:17:28.320 ,5,0,0.,12.0,0.,12.0,0.,12.0,0.,12.0
1979-08-03 00:17:40.320 ,6,0,0.,12.0,0.,12.0,0.,12.0,0.,12.0
1979-08-03 00:17:52.320 ,6,0,0.,12.0,0.,12.0,0.,12.0,0.,12.0
1979-08-03 00:18:04.320 ,6,0,0.,12.0,0.,12.0,0.,12.0,0.,12.0
1979-08-03 00:18:16.320 ,6,0,0.,12.0,0.,12.0,0.,12.0,0.,12.0
1979-08-03 00:18:28.320 ,7,0,0.,12.0,0.,12.0,0.,12.0,0.,12.0
1979-08-03 00:18:40.320 ,7,0,0.,12.0,0.,12.0,0.,12.0,0.,12.0
1979-08-03 00:18:52.320 ,7,0,0.,12.0,0.,12.0,0.,12.0,0.,12.0
1979-08-03 00:19:04.320 ,7,0,0.,12.0,0.,12.0,0.,12.0,0.,12.0
1979-08-03 00:19:16.320 ,3,1,0.,12.0,0.,12.0,0.,12.0,0.,12.0
1979-08-03 00:19:28.320 ,3,1,0.,12.0,0.,12.0,0.,12.0,0.,12.0
1979-08-03 00:19:40.320 ,0,1,0.,12.0,0.,12.0,0.,12.0,0.,12.0
1979-08-03 00:19:52.320 ,0,1,0.,12.0,0.,12.0,0.,12.0,0.,12.0
1979-08-03 00:20:04.320 ,4,1,0.,12.0,0.,12.0,0.,12.0,0.,12.0
1979-08-03 00:20:16.320 ,4,1,0.,12.0,0.,12.0,0.,12.0,0.,12.0
1979-08-03 00:20:28.320 ,7,1,0.,12.0,0.,12.0,0.,12.0,0.,12.0
1979-08-03 00:20:40.320 ,7,1,0.,12.0,0.,12.0,0.,12.0,0.,12.0
1979-08-03 00:20:52.320 ,3,1,0.,12.0,0.,12.0,0.,12.0,0.,12.0
1979-08-03 00:21:04.320 ,3,1,0.,12.0,0.,12.0,0.,12.0,0.,12.0
1979-08-03 00:21:16.320 ,0,1,0.,12.0,0.,12.0,0.,12.0,0.,12.0
1979-08-03 00:21:28.320 ,0,1,0.,12.0,0.,12.0,0.,12.0,0.,12.0
1979-08-03 00:21:40.320 ,4,1,0.,12.0,0.,12.0,0.,12.0,0.,12.0
1979-08-03 00:21:52.320 ,4,1,0.,12.0,0.,12.0,0.,12.0,0.,12.0
1979-08-03 00:22:04.320 ,7,1,0.,12.0,0.,12.0,0.,12.0,0.,12.0
1979-08-03 00:22:16.320 ,7,1,0.,12.0,0.,12.0,0.,12.0,0.,12.0
1979-08-03 00:22:28.320 ,3,1,0.,12.0,0.,12.0,0.,12.0,0.,12.0
1979-08-03 00:22:40.320 ,3,1,0.,12.0,0.,12.0,0.,12.0,0.,12.0
1979-08-03 00:22:52.320 ,0,1,0.,12.0,0.,12.0,0.,12.0,0.,12.0
1979-08-03 00:23:04.320 ,0,1,0.,12.0,0.,12.0,0.,12.0,0.,12.0
1979-08-03 00:23:16.320 ,0,0,0.,12.0,0.,12.0,0.,12.0,0.,12.0
1979-08-03 00:23:28.320 ,0,0,0.,12.0,0.,12.0,0.,12.0,0.,12.0
1979-08-03 00:23:40.320 ,0,0,0.,12.0,0.,12.0,0.,12.0,0.,12.0
1979-08-03 00:23:52.320 ,0,0,0.,12.0,0.,12.0,0.,12.0,0.,12.0
1979-08-03 00:24:04.320 ,3,1,0.,12.0,0.,12.0,0.,12.0,0.,12.0
1979-08-03 00:24:16.320 ,3,1,0.,12.0,0.,12.0,0.,12.0,0.,12.0
1979-08-03 00:24:28.320 ,0,1,0.,12.0,0.,12.0,0.,12.0,0.,12.0
1979-08-03 00:24:40.320 ,0,1,0.,12.0,0.,12.0,0.,12.0,0.,12.0
1979-08-03 00:24:52.320 ,4,1,0.,12.0,0.,12.0,0.,12.0,0.,12.0
1979-08-03 00:25:04.320 ,4,1,0.,12.0,0.,12.0,0.,12.0,0.,12.0
1979-08-03 00:25:16.320 ,7,1,0.,12.0,0.,12.0,0.,12.0,0.,12.0
1979-08-03 00:25:28.320 ,7,1,0.,12.0,0.,12.0,0.,12.0,0.,12.0
1979-08-03 00:25:40.320 ,3,1,0.,12.0,0.,12.0,0.,12.0,0.,12.0
1979-08-03 00:25:52.320 ,3,1,0.,12.0,0.,12.0,0.,12.0,0.,12.0
1979-08-03 00:26:04.320 ,0,1,0.,12.0,0.,12.0,0.,12.0,0.,12.0
1979-08-03 00:26:16.320 ,0,1,0.,12.0,0.,12.0,0.,12.0,0.,12.0
1979-08-03 00:26:28.320 ,4,1,0.,12.0,0.,12.0,0.,12.0,0.,12.0
1979-08-03 00:26:40.320 ,4,1,0.,12.0,0.,12.0,0.,12.0,0.,12.0
1979-08-03 00:26:52.320 ,7,1,0.,12.0,0.,12.0,0.,12.0,0.,12.0
1979-08-03 00:27:04.320 ,7,1,0.,12.0,0.,12.0,0.,12.0,0.,12.0
1979-08-03 00:27:16.320 ,3,1,0.,12.0,0.,12.0,0.,12.0,0.,12.0
1979-08-03 00:27:28.320 ,3,1,0.,12.0,0.,12.0,0.,12.0,0.,12.0
1979-08-03 00:27:40.320 ,0,1,0.,12.0,0.,12.0,0.,12.0,0.,12.0
1979-08-03 00:27:52.320 ,0,1,0.,12.0,0.,12.0,0.,12.0,0.,12.0
1979-08-03 00:28:04.320 ,4,1,0.,12.0,0.,12.0,0.,12.0,0.,12.0
1979-08-03 00:28:16.320 ,4,1,0.,12.0,0.,12.0,0.,12.0,0.,12.0
1979-08-03 00:28:28.320 ,7,1,0.,12.0,0.,12.0,0.,12.0,0.,12.0
1979-08-03 00:28:40.320 ,7,1,0.,12.0,0.,12.0,0.,12.0,0.,12.0
1979-08-03 00:28:52.320 ,3,1,0.,12.0,0.,12.0,0.,12.0,0.,12.0
1979-08-03 00:29:04.320 ,3,1,0.,12.0,0.,12.0,0.,12.0,0.,12.0
1979-08-03 00:29:16.320 ,0,1,0.,12.0,0.,12.0,0.,12.0,0.,12.0
1979-08-03 00:29:28.320 ,0,1,0.,12.0,0.,12.0,0.,12.0,0.,12.0
1979-08-03 00:29:40.320 ,0,0,0.,12.0,0.,12.0,0.,12.0,0.,12.0
1979-08-03 00:29:52.320 ,0,0,0.,12.0,0.,12.0,0.,12.0,0.,12.0
1979-08-03 00:30:04.320 ,0,0,0.,12.0,0.,12.0,0.,12.0,0.,12.0
1979-08-03 00:30:16.320 ,0,0,0.,12.0,0.,12.0,0.,12.0,0.,12.0
1979-08-03 00:30:28.320 ,5,0,0.,12.0,0.,12.0,0.,12.0,0.,12.0
1979-08-03 00:30:40.320 ,5,0,0.,12.0,0.,12.0,0.,12.0,0.,12.0
1979-08-03 00:30:52.320 ,5,0,0.,12.0,0.,12.0,0.,12.0,0.,12.0
1979-08-03 00:31:04.320 ,5,0,0.,12.0,0.,12.0,0.,12.0,0.,12.0
1979-08-03 00:31:16.320 ,4,0,0.,12.0,0.,12.0,0.,12.0,0.,12.0
1979-08-03 00:31:28.320 ,4,0,0.,12.0,0.,12.0,0.,12.0,0.,12.0
1979-08-03 00:31:40.320 ,4,0,0.,12.0,0.,12.0,0.,12.0,0.,12.0
1979-08-03 00:31:52.320 ,4,0,0.,12.0,0.,12.0,0.,12.0,0.,12.0
1979-08-03 00:32:04.320 ,3,0,0.,12.0,0.,12.0,0.,12.0,0.,12.0
1979-08-03 00:32:16.320 ,3,0,0.,12.0,0.,12.0,0.,12.0,0.,12.0
1979-08-03 00:32:28.320 ,3,0,0.,12.0,0.,12.0,0.,12.0,0.,12.0
1979-08-03 00:32:40.320 ,3,0,0.,12.0,0.,12.0,0.,12.0,0.,12.0
1979-08-03 00:32:52.320 ,2,0,0.,12.0,0.,12.0,0.,12.0,0.,12.0
1979-08-03 00:33:04.320 ,2,0,0.,12.0,0.,12.0,0.,12.0,0.,12.0
1979-08-03 00:33:16.320 ,2,0,0.,12.0,0.,12.0,0.,12.0,0.,12.0
1979-08-03 00:33:28.320 ,2,0,0.,12.0,0.,12.0,0.,12.0,0.,12.0
1979-08-03 00:33:40.320 ,1,0,0.,12.0,0.,12.0,0.,12.0,0.,12.0
1979-08-03 00:33:52.320 ,1,0,0.,12.0,0.,12.0,0.,12.0,0.,12.0
1979-08-03 00:34:04.320 ,1,0,0.,12.0,0.,12.0,0.,12.0,0.,12.0
1979-08-03 00:34:16.320 ,1,0,0.,12.0,0.,12.0,0.,12.0,0.,12.0
1979-08-03 00:34:28.320 ,0,0,0.,12.0,0.,12.0,0.,12.0,0.,12.0
1979-08-03 00:34:40.320 ,0,0,0.,12.0,0.,12.0,0.,12.0,0.,12.0
1979-08-03 00:34:52.320 ,0,0,0.,12.0,0.,12.0,0.,12.0,0.,12.0
1979-08-03 00:35:04.320 ,0,0,0.,12.0,0.,12.0,0.,12.0,0.,12.0
1979-08-03 00:35:16.320 ,0,0,0.,12.0,0.,12.0,0.,12.0,0.,12.0
1979-08-03 00:35:28.320 ,0,0,0.,12.0,0.,12.0,0.,12.0,0.,12.0
1979-08-03 00:35:40.320 ,0,0,0.,12.0,0.,12.0,0.,12.0,0.,12.0
1979-08-03 00:35:52.320 ,0,0,0.,12.0,0.,12.0,0.,12.0,0.,12.0
1979-08-03 00:36:04.320 ,1,0,0.,12.0,0.,12.0,0.,12.0,0.,12.0
1979-08-03 00:36:16.320 ,1,0,0.,12.0,0.,12.0,0.,12.0,0.,12.0
1979-08-03 00:36:28.320 ,1,0,0.,12.0,0.,12.0,0.,12.0,0.,12.0
1979-08-03 00:36:40.320 ,1,0,0.,12.0,0.,12.0,0.,12.0,0.,12.0
1979-08-03 00:36:52.320 ,2,0,0.,12.0,0.,12.0,0.,12.0,0.,12.0
1979-08-03 00:37:04.320 ,2,0,0.,12.0,0.,12.0,0.,12.0,0.,12.0
1979-08-03 00:37:16.320 ,2,0,0.,12.0,0.,12.0,0.,12.0,0.,12.0
1979-08-03 00:37:28.320 ,2,0,0.,12.0,0.,12.0,0.,12.0,0.,12.0
1979-08-03 00:37:40.320 ,3,0,0.,12.0,0.,12.0,0.,12.0,0.,12.0
1979-08-03 00:37:52.320 ,3,0,0.,12.0,0.,12.0,0.,12.0,0.,12.0
1979-08-03 00:38:04.320 ,3,0,0.,12.0,0.,12.0,0.,12.0,0.,12.0
1979-08-03 00:38:16.320 ,3,0,0.,12.0,0.,12.0,0.,12.0,0.,12.0
1979-08-03 00:38:28.320 ,4,0,0.,12.0,0.,12.0,0.,12.0,0.,12.0
1979-08-03 00:38:40.320 ,4,0,0.,12.0,0.,12.0,0.,12.0,0.,12.0
1979-08-03 00:38:52.320 ,4,0,0.,12.0,0.,12.0,0.,12.0,0.,12.0
1979-08-03 00:39:04.320 ,4,0,0.,12.0,0.,12.0,0.,12.0,0.,12.0
1979-08-03 00:39:16.320 ,5,0,0.,12.0,0.,12.0,0.,12.0,0.,12.0
1979-08-03 00:39:28.320 ,5,0,0.,12.0,0.,12.0,0.,12.0,0.,12.0
1979-08-03 00:39:40.320 ,5,0,0.,12.0,0.,12.0,0.,12.0,0.,12.0
1979-08-03 00:39:52.320 ,5,0,0.,12.0,0.,12.0,0.,12.0,0.,12.0
1979-08-03 00:40:04.320 ,6,0,0.,12.0,0.,12.0,0.,12.0,0.,12.0
1979-08-03 00:40:16.320 ,6,0,0.,12.0,0.,12.0,0.,12.0,0.,12.0
1979-08-03 00:40:28.320 ,6,0,0.,12.0,0.,12.0,0.,12.0,0.,12.0
1979-08-03 00:40:40.320 ,6,0,0.,12.0,0.,12.0,0.,12.0,0.,12.0
1979-08-03 00:40:52.320 ,7,0,0.,12.0,0.,12.0,0.,12.0,0.,12.0
1979-08-03 00:41:04.320 ,7,0,0.,12.0,0.,12.0,0.,12.0,0.,12.0
1979-08-03 00:41:16.320 ,7,0,0.,12.0,0.,12.0,0.,12.0,0.,12.0
1979-08-03 00:41:28.320 ,7,0,0.,12.0,0.,12.0,0.,12.0,0.,12.0
1979-08-03 00:41:40.320 ,7,0,0.,12.0,0.,12.0,0.,12.0,0.,12.0
1979-08-03 00:41:52.320 ,7,0,0.,12.0,0.,12.0,0.,12.0,0.,12.0
1979-08-03 00:42:04.320 ,7,0,0.,12.0,0.,12.0,0.,12.0,0.,12.0
1979-08-03 00:42:16.320 ,7,0,0.,12.0,0.,12.0,0.,12.0,0.,12.0
1979-08-03 00:42:28.320 ,6,0,0.,12.0,0.,12.0,0.,12.0,0.,12.0
1979-08-03 00:42:40.320 ,6,0,0.,12.0,0.,12.0,0.,12.0,0.,12.0
1979-08-03 00:42:52.320 ,6,0,0.,12.0,0.,12.0,0.,12.0,0.,12.0
1979-08-03 00:43:04.320 ,6,0,0.,12.0,0.,12.0,0.,12.0,0.,12.0
1979-08-03 00:43:16.320 ,5,0,0.,12.0,0.,12.0,0.,12.0,0.,12.0
1979-08-03 00:43:28.320 ,5,0,0.,12.0,0.,12.0,0.,12.0,0.,12.0
1979-08-03 00:43:40.320 ,5,0,0.,12.0,0.,12.0,0.,12.0,0.,12.0
1979-08-03 00:43:52.320 ,5,0,0.,12.0,0.,12.0,0.,12.0,0.,12.0
1979-08-03 00:44:04.320 ,4,0,0.,12.0,0.,12.0,0.,12.0,0.,12.0
1979-08-03 00:44:16.320 ,4,0,0.,12.0,0.,12.0,0.,12.0,0.,12.0
1979-08-03 00:44:28.320 ,4,0,0.,12.0,0.,12.0,0.,12.0,0.,12.0
1979-08-03 00:44:40.320 ,4,0,0.,12.0,0.,12.0,0.,12.0,0.,12.0
1979-08-03 00:44:52.320 ,3,0,0.,12.0,0.,12.0,0.,12.0,0.,12.0
1979-08-03 00:45:04.320 ,3,0,0.,12.0,0.,12.0,0.,12.0,0.,12.0
1979-08-03 00:45:16.320 ,3,0,0.,12.0,0.,12.0,0.,12.0,0.,12.0
1979-08-03 00:45:28.320 ,3,0,0.,12.0,0.,12.0,0.,12.0,0.,12.0
1979-08-03 00:45:40.320 ,2,0,0.,12.0,0.,12.0,0.,12.0,0.,12.0
1979-08-03 00:45:52.320 ,2,0,0.,12.0,0.,12.0,0.,12.0,0.,12.0
1979-08-03 00:46:04.320 ,2,0,0.,12.0,0.,12.0,0.,12.0,0.,12.0
1979-08-03 00:46:16.320 ,2,0,0.,12.0,0.,12.0,0.,12.0,0.,12.0
1979-08-03 00:46:28.320 ,1,0,0.,12.0,0.,12.0,0.,12.0,0.,12.0
1979-08-03 00:46:40.320 ,1,0,0.,12.0,0.,12.0,0.,12.0,0.,12.0
1979-08-03 00:46:52.320 ,1,0,0.,12.0,0.,12.0,0.,12.0,0.,12.0
1979-08-03 00:47:04.320 ,1,0,0.,12.0,0.,12.0,0.,12.0,0.,12.0
1979-08-03 00:47:16.320 ,0,0,0.,12.0,0.,12.0,0.,12.0,0.,12.0
1979-08-03 00:47:28.320 ,0,0,0.,12.0,0.,12.0,0.,12.0,0.,12.0
1979-08-03 00:47:40.320 ,0,0,0.,12.0,0.,12.0,0.,12.0,0.,12.0
1979-08-03 00:47:52.320 ,0,0,0.,12.0,0.,12.0,0.,12.0,0.,12.0
1979-08-03 00:48:04.320 ,0,0,0.,12.0,0.,12.0,0.,12.0,0.,12.0
1979-08-03 00:48:16.320 ,0,0,0.,12.0,0.,12.0,0.,12.0,0.,12.0
1979-08-03 00:48:28.320 ,0,0,0.,12.0,0.,12.0,0.,12.0,0.,12.0
1979-08-03 00:48:40.320 ,0,0,0.,12.0,0.,12.0,0.,12.0,0.,12.0
1979-08-03 00:48:52.320 ,1,0,0.,12.0,0.,12.0,0.,12.0,0.,12.0
1979-08-03 00:49:04.320 ,1,0,0.,12.0,0.,12.0,0.,12.0,0.,12.0
1979-08-03 00:49:16.320 ,1,0,0.,12.0,0.,12.0,0.,12.0,0.,12.0
1979-08-03 00:49:28.320 ,1,0,0.,12.0,0.,12.0,0.,12.0,0.,12.0
1979-08-03 00:49:40.320 ,2,0,0.,12.0,0.,12.0,0.,12.0,0.,12.0
1979-08-03 00:49:52.320 ,2,0,0.,12.0,0.,12.0,0.,12.0,0.,12.0
1979-08-03 00:50:04.320 ,2,0,0.,12.0,0.,12.0,0.,12.0,0.,12.0
1979-08-03 00:50:16.320 ,2,0,0.,12.0,0.,12.0,0.,12.0,0.,12.0
1979-08-03 00:50:28.320 ,3,0,0.,12.0,0.,12.0,0.,12.0,0.,12.0
1979-08-03 00:50:40.320 ,3,0,0.,12.0,0.,12.0,0.,12.0,0.,12.0
1979-08-03 00:50:52.320 ,3,0,0.,12.0,0.,12.0,0.,12.0,0.,12.0
1979-08-03 00:51:04.320 ,3,0,0.,12.0,0.,12.0,0.,12.0,0.,12.0
1979-08-03 00:51:16.320 ,4,0,0.,12.0,0.,12.0,0.,12.0,0.,12.0
1979-08-03 00:51:28.320 ,4,0,0.,12.0,0.,12.0,0.,12.0,0.,12.0
1979-08-03 00:51:40.320 ,4,0,0.,12.0,0.,12.0,0.,12.0,0.,12.0
1979-08-03 00:51:52.320 ,4,0,0.,12.0,0.,12.0,0.,12.0,0.,12.0
1979-08-03 00:52:04.320 ,5,0,0.,12.0,0.,12.0,0.,12.0,0.,12.0
1979-08-03 00:52:16.320 ,5,0,0.,12.0,0.,12.0,0.,12.0,0.,12.0
1979-08-03 00:52:28.320 ,5,0,0.,12.0,0.,12.0,0.,12.0,0.,12.0
1979-08-03 00:52:40.320 ,5,0,0.,12.0,0.,12.0,0.,12.0,0.,12.0
1979-08-03 00:52:52.320 ,6,0,0.,12.0,0.,12.0,0.,12.0,0.,12.0
1979-08-03 00:53:04.320 ,6,0,0.,12.0,0.,12.0,0.,12.0,0.,12.0
1979-08-03 00:53:16.320 ,6,0,0.,12.0,0.,12.0,0.,12.0,0.,12.0
1979-08-03 00:53:28.320 ,6,0,0.,12.0,0.,12.0,0.,12.0,0.,12.0
1979-08-03 00:53:40.320 ,7,0,0.,12.0,0.,12.0,0.,12.0,0.,12.0
1979-08-03 00:53:52.320 ,7,0,0.,12.0,0.,12.0,0.,12.0,0.,12.0
1979-08-03 00:54:04.320 ,7,0,0.,12.0,0.,12.0,0.,12.0,0.,12.0
1979-08-03 00:54:16.320 ,7,0,0.,12.0,0.,12.0,0.,12.0,0.,12.0
1979-08-03 00:54:28.320 ,7,0,0.,12.0,0.,12.0,0.,12.0,0.,12.0
1979-08-03 00:54:40.320 ,7,0,0.,12.0,0.,12.0,0.,12.0,0.,12.0
1979-08-03 00:54:52.320 ,7,0,0.,12.0,0.,12.0,0.,12.0,0.,12.0
1979-08-03 00:55:04.320 ,7,0,0.,12.0,0.,12.0,0.,12.0,0.,12.0
1979-08-03 00:55:16.320 ,6,0,0.,12.0,0.,12.0,0.,12.0,0.,12.0
1979-08-03 00:55:28.320 ,6,0,0.,12.0,0.,12.0,0.,12.0,0.,12.0
1979-08-03 00:55:40.320 ,6,0,0.,12.0,0.,12.0,0.,12.0,0.,12.0
1979-08-03 00:55:52.320 ,6,0,0.,12.0,0.,12.0,0.,12.0,0.,12.0
1979-08-03 00:56:04.320 ,5,0,0.,12.0,0.,12.0,0.,12.0,0.,12.0
1979-08-03 00:56:16.320 ,5,0,0.,12.0,0.,12.0,0.,12.0,0.,12.0
1979-08-03 00:56:28.320 ,5,0,0.,12.0,0.,12.0,0.,12.0,0.,12.0
1979-08-03 00:56:40.320 ,5,0,0.,12.0,0.,12.0,0.,12.0,0.,12.0
1979-08-03 00:56:52.320 ,4,0,0.,12.0,0.,12.0,0.,12.0,0.,12.0
1979-08-03 00:57:04.320 ,4,0,0.,12.0,0.,12.0,0.,12.0,0.,12.0
1979-08-03 00:57:16.320 ,4,0,0.,12.0,0.,12.0,0.,12.0,0.,12.0
1979-08-03 00:57:28.320 ,4,0,0.,12.0,0.,12.0,0.,12.0,0.,12.0
1979-08-03 00:57:40.320 ,3,0,0.,12.0,0.,12.0,0.,12.0,0.,12.0
1979-08-03 00:57:52.320 ,3,0,0.,12.0,0.,12.0,0.,12.0,0.,12.0
1979-08-03 00:58:04.320 ,3,0,0.,12.0,0.,12.0,0.,12.0,0.,12.0
1979-08-03 00:58:16.320 ,3,0,0.,12.0,0.,12.0,0.,12.0,0.,12.0
1979-08-03 00:58:28.320 ,2,0,0.,12.0,0.,12.0,0.,12.0,0.,12.0
1979-08-03 00:58:40.320 ,2,0,0.,12.0,0.,12.0,0.,12.0,0.,12.0
1979-08-03 00:58:52.320 ,2,0,0.,12.0,0.,12.0,0.,12.0,0.,12.0
1979-08-03 00:59:04.320 ,2,0,0.,12.0,0.,12.0,0.,12.0,0.,12.0
1979-08-03 00:59:16.320 ,1,0,0.,12.0,0.,12.0,0.,12.0,0.,12.0
1979-08-03 00:59:28.320 ,1,0,0.,12.0,0.,12.0,0.,12.0,0.,12.0
1979-08-03 00:59:40.320 ,1,0,0.,12.0,0.,12.0,0.,12.0,0.,12.0
1979-08-03 00:59:52.320 ,1,0,0.,12.0,0.,12.0,0.,12.0,0.,12.0
1979-08-03 01:00:04.320 ,0,0,0.,12.0,0.,12.0,0.,12.0,0.,12.0
1979-08-03 01:00:16.320 ,0,0,0.,12.0,0.,12.0,0.,12.0,0.,12.0
1979-08-03 01:00:28.320 ,0,0,0.,12.0,0.,12.0,0.,12.0,0.,12.0
1979-08-03 01:00:40.320 ,0,0,0.,12.0,0.,12.0,0.,12.0,0.,12.0
1979-08-03 01:00:52.320 ,0,0,0.,12.0,0.,12.0,0.,12.0,0.,12.0
1979-08-03 01:01:04.320 ,0,0,0.,12.0,0.,12.0,0.,12.0,0.,12.0
1979-08-03 01:01:16.320 ,0,0,0.,12.0,0.,12.0,0.,12.0,0.,12.0
1979-08-03 01:01:28.320 ,0,0,0.,12.0,0.,12.0,0.,12.0,0.,12.0
1979-08-03 01:01:40.320 ,1,0,0.,12.0,0.,12.0,0.,12.0,0.,12.0
1979-08-03 01:01:52.320 ,1,0,0.,12.0,0.,12.0,0.,12.0,0.,12.0
1979-08-03 01:02:04.320 ,1,0,0.,12.0,0.,12.0,0.,12.0,0.,12.0
1979-08-03 01:02:16.320 ,1,0,0.,12.0,0.,12.0,0.,12.0,0.,12.0
1979-08-03 01:02:28.320 ,2,0,0.,12.0,0.,12.0,0.,12.0,0.,12.0
1979-08-03 01:02:40.320 ,2,0,0.,12.0,0.,12.0,0.,12.0,0.,12.0
1979-08-03 01:02:52.320 ,2,0,0.,12.0,0.,12.0,0.,12.0,0.,12.0
1979-08-03 01:03:04.320 ,2,0,0.,12.0,0.,12.0,0.,12.0,0.,12.0
1979-08-03 01:03:16.320 ,3,0,0.,12.0,0.,12.0,0.,12.0,0.,12.0
1979-08-03 01:03:28.320 ,3,0,0.,12.0,0.,12.0,0.,12.0,0.,12.0
1979-08-03 01:03:40.320 ,3,0,0.,12.0,0.,12.0,0.,12.0,0.,12.0
1979-08-03 01:03:52.320 ,3,0,0.,12.0,0.,12.0,0.,12.0,0.,12.0
1979-08-03 01:04:04.320 ,4,0,0.,12.0,0.,12.0,0.,12.0,0.,12.0
1979-08-03 01:04:16.320 ,4,0,0.,12.0,0.,12.0,0.,12.0,0.,12.0
1979-08-03 01:04:28.320 ,4,0,0.,12.0,0.,12.0,0.,12.0,0.,12.0
1979-08-03 01:04:40.320 ,4,0,0.,12.0,0.,12.0,0.,12.0,0.,12.0
1979-08-03 01:04:52.320 ,5,0,0.,12.0,0.,12.0,0.,12.0,0.,12.0
1979-08-03 01:05:04.320 ,5,0,0.,12.0,0.,12.0,0.,12.0,0.,12.0
1979-08-03 01:05:16.320 ,5,0,0.,12.0,0.,12.0,0.,12.0,0.,12.0
1979-08-03 01:05:28.320 ,5,0,0.,12.0,0.,12.0,0.,12.0,0.,12.0
1979-08-03 01:05:40.320 ,6,0,0.,12.0,0.,12.0,0.,12.0,0.,12.0
1979-08-03 01:05:52.320 ,6,0,0.,12.0,0.,12.0,0.,12.0,0.,12.0
1979-08-03 01:06:04.320 ,6,0,0.,12.0,0.,12.0,0.,12.0,0.,12.0
1979-08-03 01:06:16.320 ,6,0,0.,12.0,0.,12.0,0.,12.0,0.,12.0
1979-08-03 01:06:28.320 ,7,0,0.,12.0,0.,12.0,0.,12.0,0.,12.0
1979-08-03 01:06:40.320 ,7,0,0.,12.0,0.,12.0,0.,12.0,0.,12.0
1979-08-03 01:06:52.320 ,7,0,0.,12.0,0.,12.0,0.,12.0,0.,12.0
1979-08-03 01:07:04.320 ,7,0,0.,12.0,0.,12.0,0.,12.0,0.,12.0
1979-08-03 01:07:16.320 ,3,1,0.,12.0,0.,12.0,0.,12.0,0.,12.0
1979-08-03 01:07:28.320 ,3,1,0.,12.0,0.,12.0,0.,12.0,0.,12.0
1979-08-03 01:07:40.320 ,0,1,0.,12.0,0.,12.0,0.,12.0,0.,12.0
1979-08-03 01:07:52.320 ,0,1,0.,12.0,0.,12.0,0.,12.0,0.,12.0
1979-08-03 01:08:04.320 ,4,1,0.,12.0,0.,12.0,0.,12.0,0.,12.0
1979-08-03 01:08:16.320 ,4,1,0.,12.0,0.,12.0,0.,12.0,0.,12.0
1979-08-03 01:08:28.320 ,7,1,0.,12.0,0.,12.0,0.,12.0,0.,12.0
1979-08-03 01:08:40.320 ,7,1,0.,12.0,0.,12.0,0.,12.0,0.,12.0
1979-08-03 01:08:52.320 ,3,1,0.,12.0,0.,12.0,0.,12.0,0.,12.0
1979-08-03 01:09:04.320 ,3,1,0.,12.0,0.,12.0,0.,12.0,0.,12.0
1979-08-03 01:09:16.320 ,0,1,0.,12.0,0.,12.0,0.,12.0,0.,12.0
1979-08-03 01:09:28.320 ,0,1,0.,12.0,0.,12.0,0.,12.0,0.,12.0
1979-08-03 01:09:40.320 ,4,1,0.,12.0,0.,12.0,0.,12.0,0.,12.0
1979-08-03 01:09:52.320 ,4,1,0.,12.0,0.,12.0,0.,12.0,0.,12.0
1979-08-03 01:10:04.320 ,7,1,0.,12.0,0.,12.0,0.,12.0,0.,12.0
1979-08-03 01:10:16.320 ,7,1,0.,12.0,0.,12.0,0.,12.0,0.,12.0
1979-08-03 01:10:28.320 ,3,1,0.,12.0,0.,12.0,0.,12.0,0.,12.0
1979-08-03 01:10:40.320 ,3,1,0.,12.0,0.,12.0,0.,12.0,0.,12.0
1979-08-03 01:10:52.320 ,0,1,0.,12.0,0.,12.0,0.,12.0,0.,12.0
1979-08-03 01:11:04.320 ,0,1,0.,12.0,0.,12.0,0.,12.0,0.,12.0
1979-08-03 01:11:16.320 ,4,1,0.,12.0,0.,12.0,0.,12.0,0.,12.0
1979-08-03 01:11:28.320 ,4,1,0.,12.0,0.,12.0,0.,12.0,0.,12.0
1979-08-03 01:11:40.320 ,7,1,0.,12.0,0.,12.0,0.,12.0,0.,12.0
1979-08-03 01:11:52.320 ,7,1,0.,12.0,0.,12.0,0.,12.0,0.,12.0
1979-08-03 01:12:04.320 ,3,1,0.,12.0,0.,12.0,0.,12.0,0.,12.0
1979-08-03 01:12:16.320 ,3,1,0.,12.0,0.,12.0,0.,12.0,0.,12.0
1979-08-03 01:12:28.320 ,0,1,0.,12.0,0.,12.0,0.,12.0,0.,12.0
1979-08-03 01:12:40.320 ,0,1,0.,12.0,0.,12.0,0.,12.0,0.,12.0
1979-08-03 01:12:52.320 ,4,1,0.,12.0,0.,12.0,0.,12.0,0.,12.0
1979-08-03 01:13:04.320 ,4,1,0.,12.0,0.,12.0,0.,12.0,0.,12.0
1979-08-03 01:13:16.320 ,7,1,0.,12.0,0.,12.0,0.,12.0,0.,12.0
1979-08-03 01:13:28.320 ,7,1,0.,12.0,0.,12.0,0.,12.0,0.,12.0
1979-08-03 01:13:40.320 ,3,1,0.,12.0,0.,12.0,0.,12.0,0.,12.0
1979-08-03 01:13:52.320 ,3,1,0.,12.0,0.,12.0,0.,12.0,0.,12.0
1979-08-03 01:14:04.320 ,0,1,0.,12.0,0.,12.0,0.,12.0,0.,12.0
1979-08-03 01:14:16.320 ,0,1,0.,12.0,0.,12.0,0.,12.0,0.,12.0
1979-08-03 01:14:28.320 ,4,1,0.,12.0,0.,12.0,0.,12.0,0.,12.0
1979-08-03 01:14:40.320 ,4,1,0.,12.0,0.,12.0,0.,12.0,0.,12.0
1979-08-03 01:14:52.320 ,7,1,0.,12.0,0.,12.0,0.,12.0,0.,12.0
1979-08-03 01:15:04.320 ,7,1,0.,12.0,0.,12.0,0.,12.0,0.,12.0
1979-08-03 01:15:16.320 ,3,1,0.,12.0,0.,12.0,0.,12.0,0.,12.0
1979-08-03 01:15:28.320 ,3,1,0.,12.0,0.,12.0,0.,12.0,0.,12.0
1979-08-03 01:15:40.320 ,0,1,0.,12.0,0.,12.0,0.,12.0,0.,12.0
1979-08-03 01:15:52.320 ,0,1,0.,12.0,0.,12.0,0.,12.0,0.,12.0
1979-08-03 01:16:04.320 ,4,1,0.,12.0,0.,12.0,0.,12.0,0.,12.0
1979-08-03 01:16:16.320 ,4,1,0.,12.0,0.,12.0,0.,12.0,0.,12.0
1979-08-03 01:16:28.320 ,7,1,0.,12.0,0.,12.0,0.,12.0,0.,12.0
1979-08-03 01:16:40.320 ,7,1,0.,12.0,0.,12.0,0.,12.0,0.,12.0
1979-08-03 01:16:52.320 ,3,1,0.,12.0,0.,12.0,0.,12.0,0.,12.0
1979-08-03 01:17:04.320 ,3,1,0.,12.0,0.,12.0,0.,12.0,0.,12.0
1979-08-03 01:17:16.320 ,0,1,0.,12.0,0.,12.0,0.,12.0,0.,12.0
1979-08-03 01:17:28.320 ,0,1,0.,12.0,0.,12.0,0.,12.0,0.,12.0